Regional Weather Roundup
Issued by NWS

Home | Current Version | Previous Version | Graphics & Text | Print | Product List | Glossary On
Versions: 1 2 3 4 5 6 7 8 9 10 11 12 13 14 15 16 17 18 19 20 21 22 23 24 25 26 27 28 29 30 31 32 33 34 35 36 37 38 39 40 41 42 43 44 45 46 47 48 49 50
000
ASUS45 KPSR 011000
RWRAZ

ARIZONA HOURLY REGIONAL WEATHER ROUNDUP
NATIONAL WEATHER SERVICE PHOENIX AZ
300 AM MST SAT AUG 01 2015

NOTE: FAIR INDICATES FEW OR NO CLOUDS BELOW 12,000 FEET WITH NO
SIGNIFICANT WEATHER AND/OR OBSTRUCTIONS TO VISIBILITY.

AZZ001>003-036-011100-
NORTHWEST ARIZONA

CITY           SKY/WX    TMP DP  RH WIND       PRES   REMARKS
KINGMAN        CLOUDY    81  52  36 SE12      30.06F
$$

AZZ004>008-015-016-018-011100-
NORTH CENTRAL ARIZONA

CITY           SKY/WX    TMP DP  RH WIND       PRES   REMARKS
GRAND CANYON   CLOUDY    61  55  81 CALM      30.32S
WILLIAMS       CLOUDY    63  50  63 S7        30.38F
PRESCOTT       CLOUDY    69  60  73 S8        30.20F
FLAGSTAFF      NOT AVBL
PAYSON         CLOUDY    68  59  73 S3        30.22S
PAGE           MOCLDY    77  51  40 S5        30.12F
$$

AZZ009>014-017-011100-
NORTHEAST ARIZONA

CITY           SKY/WX    TMP DP  RH WIND       PRES   REMARKS
WINSLOW        NOT AVBL
SAINT JOHNS    MOCLDY    64  59  83 CALM      30.26S
SHOW LOW       CLOUDY    57  54  88 CALM      30.32S
$$

AZZ023-011100-
GREATER PHOENIX AREA

CITY           SKY/WX    TMP DP  RH WIND       PRES   REMARKS
PHOENIX        CLOUDY    82  71  69 NW7       29.91S
LUKE AFB       CLOUDY    79  73  83 N5        29.91F
DEER VALLEY    CLOUDY    81  66  60 N3        29.94F
SCOTTSDALE     CLOUDY    83  66  56 CALM      29.95F
$$

AZZ027-028-011100-
SOUTHWEST MARICOPA COUNTY AND PINAL COUNTY

CITY           SKY/WX    TMP DP  RH WIND       PRES   REMARKS
CASA GRANDE    CLOUDY    77  72  83 CALM      29.92F
GILA BEND      MOCLDY    82  67  60 E3        29.87F
$$

AZZ503-504-507>509-011100-
SOUTHEAST ARIZONA

CITY           SKY/WX    TMP DP  RH WIND       PRES   REMARKS
TUCSON         CLEAR     77  63  61 S5        30.01F
DAVIS-MONTHAN  MOCLDY    76  63  62 SE8       29.99F
NOGALES        CLEAR     65  60  84 E3        30.10F
SIERRA VISTA   CLEAR     66  61  81 S9        30.16F
SAFFORD        MOCLDY    73  66  78 S9        30.04F
$$

AZZ020-021-025-026-031-011100-
SOUTHWEST ARIZONA

CITY           SKY/WX    TMP DP  RH WIND       PRES   REMARKS
YUMA           NOT AVBL
$$

CAZ031-033-041-043-047-048-061-011100-
SOUTHERN CALIFORNIA

CITY           SKY/WX    TMP DP  RH WIND       PRES   REMARKS
DOWNTOWN L.A.  CLOUDY    68  64  87 CALM      29.96S
L.A. AIRPORT   CLOUDY    67  65  93 W3        29.97S FOG
SAN DIEGO      MOCLDY    70  62  76 W3        29.98S
BURBANK        PTCLDY    68  64  87 SE7       29.97S
ONTARIO        PTCLDY    70  64  81 W5        29.98R
RIVERSIDE      CLEAR     72  64  76 CALM      29.97F
PALM SPRINGS   PTCLDY    84  61  45 S6        29.85S
EL CENTRO NAS  CLEAR     83  45  26 CALM      29.81F
IMPERIAL       CLEAR     82  50  32 SW6       29.79F
BLYTHE         MOCLDY    91  61  36 S9        29.83S
$$

NVZ020-UTZ003-011100-
SOUTHERN NEVADA-UTAH

CITY           SKY/WX    TMP DP  RH WIND       PRES   REMARKS
LAS VEGAS      NOT AVBL
SALT LAKE CITY PTCLDY    67  37  33 S8        30.08F
$$

NMZ009-TXZ055-011100-
NEW MEXICO-WEST TEXAS

CITY           SKY/WX    TMP DP  RH WIND       PRES   REMARKS
ALBUQUERQUE    CLOUDY    68  58  70 E3        30.30F
EL PASO        MOCLDY    79  57  46 N8        30.12S
$$


........................KEY........................
SKY/WX - SKY CONDITION/WEATHER
TMP    - TEMPERATURE IN FAHRENHEIT
DP     - DEW POINT IN FAHRENHEIT
RH     - RELATIVE HUMIDITY IN PERCENT
WIND   - DIRECTION AND SPEED IN MILES PER HOUR (MPH)
VRB    - VARIABLE WIND DIRECTION
PRES   - MEAN SEA LEVEL PRESSURE IN INCHES OF MERCURY
         F - FALLING PRESSURE   R - RISING PRESSURE
         S - STEADY PRESSURE
VSB    - VISIBILITY IN MILES
HX     - HEAT INDEX IN FAHRENHEIT
WCI    - WIND CHILL INDEX IN FAHRENHEIT
TC     - TEMPERATURE IN CELSIUS WHICH IS ALSO KNOWN AS
         TEMPERATURE IN CENTIGRADE
AFB    - AIR FORCE BASE
         LUKE AFB IS LUKE AIR FORCE BASE
         DAVIS-MONTHAN IS DAVIS-MONTHAN AIR FORCE BASE
NAS    - NAVAL AIR STATION
         EL CENTRO NAS IS EL CENTRO NAVAL AIR STATION
N/A    - NOT AVAILABLE



USA.gov is the U.S. government's official web portal to all federal, state and local government web resources and services.